Time,TemperatureF,DewpointF,PressureIn,WindDirection,WindDirectionDegrees,WindSpeedMPH,WindSpeedGustMPH,Humidity,HourlyPrecipIn,Conditions,Clouds,dailyrainin,SolarRadiationWatts/m^2,SoftwareType,DateUTC
2013-03-20 00:04:00,50.4,46.7,30.11,SSE,149,0.0,9.0,87,0.01,,,0.00,0,WeatherTracker,2013-03-20 07:04:00,
2013-03-20 00:09:00,50.5,46.8,30.11,SSE,153,5.0,8.0,87,0.00,,,0.00,0,WeatherTracker,2013-03-20 07:09:00,
2013-03-20 00:14:00,50.4,46.7,30.11,SSE,165,5.0,7.0,87,0.00,,,0.00,0,WeatherTracker,2013-03-20 07:14:00,
2013-03-20 00:19:00,50.4,46.7,30.11,SSE,160,0.0,8.0,87,0.00,,,0.00,0,WeatherTracker,2013-03-20 07:19:00,
2013-03-20 00:24:00,50.3,46.6,30.11,SSE,160,0.0,9.0,87,0.01,,,0.01,0,WeatherTracker,2013-03-20 07:24:00,
2013-03-20 00:29:00,50.4,47.0,30.11,SSE,162,2.0,9.0,88,0.01,,,0.01,0,WeatherTracker,2013-03-20 07:29:00,
2013-03-20 00:34:00,50.3,46.9,30.11,SSE,163,2.0,6.0,88,0.02,,,0.02,0,WeatherTracker,2013-03-20 07:34:00,
2013-03-20 00:39:00,50.2,46.8,30.10,SSE,163,0.0,8.0,88,0.02,,,0.02,0,WeatherTracker,2013-03-20 07:39:00,
2013-03-20 00:44:00,50.2,46.8,30.10,SSE,163,4.0,6.0,88,0.03,,,0.03,0,WeatherTracker,2013-03-20 07:44:00,
2013-03-20 00:49:00,50.1,46.7,30.09,SSE,164,4.0,6.0,88,0.03,,,0.03,0,WeatherTracker,2013-03-20 07:49:00,
2013-03-20 00:54:00,50.1,46.7,30.09,SSE,165,0.0,6.0,88,0.03,,,0.03,0,WeatherTracker,2013-03-20 07:54:00,
2013-03-20 01:00:00,50.0,46.6,30.09,SSE,165,0.0,6.0,88,0.03,,,0.03,0,WeatherTracker,2013-03-20 08:00:00,
2013-03-20 01:05:00,50.0,46.6,30.09,SSE,166,0.0,5.0,88,0.03,,,0.03,0,WeatherTracker,2013-03-20 08:05:00,
2013-03-20 01:10:00,49.9,46.5,30.09,SSE,166,0.0,5.0,88,0.03,,,0.03,0,WeatherTracker,2013-03-20 08:10:00,
2013-03-20 01:15:00,49.9,46.5,30.09,SSE,166,0.0,1.0,88,0.03,,,0.03,0,WeatherTracker,2013-03-20 08:15:00,
2013-03-20 01:20:00,49.8,46.4,30.09,South,185,2.0,8.0,88,0.03,,,0.03,0,WeatherTracker,2013-03-20 08:20:00,
2013-03-20 01:25:00,49.8,46.4,30.09,South,186,0.0,8.0,88,0.02,,,0.03,0,WeatherTracker,2013-03-20 08:25:00,
2013-03-20 01:30:00,49.7,46.3,30.10,SSW,207,5.0,10.0,88,0.02,,,0.03,0,WeatherTracker,2013-03-20 08:30:00,
2013-03-20 01:35:00,49.7,46.3,30.10,SSW,208,7.0,10.0,88,0.01,,,0.03,0,WeatherTracker,2013-03-20 08:35:00,
2013-03-20 01:40:00,49.6,46.2,30.11,SW,219,6.0,10.0,88,0.01,,,0.03,0,WeatherTracker,2013-03-20 08:40:00,
2013-03-20 01:45:00,49.6,46.2,30.11,SSW,213,3.0,10.0,88,0.00,,,0.03,0,WeatherTracker,2013-03-20 08:45:00,
2013-03-20 01:50:00,49.6,46.2,30.11,SSW,211,3.0,10.0,88,0.00,,,0.03,0,WeatherTracker,2013-03-20 08:50:00,
2013-03-20 01:55:00,49.6,46.2,30.11,SSW,203,2.0,10.0,88,0.00,,,0.03,0,WeatherTracker,2013-03-20 08:55:00,
2013-03-20 02:00:00,49.7,46.3,30.11,SSW,212,3.0,10.0,88,0.00,,,0.03,0,WeatherTracker,2013-03-20 09:00:00,
2013-03-20 02:05:00,49.8,46.4,30.11,SSW,213,0.0,8.0,88,0.01,,,0.04,0,WeatherTracker,2013-03-20 09:05:00,
2013-03-20 02:10:00,49.8,46.4,30.11,SSW,213,0.0,8.0,88,0.03,,,0.06,0,WeatherTracker,2013-03-20 09:10:00,
2013-03-20 02:15:00,49.9,46.5,30.11,SSW,213,0.0,4.0,88,0.04,,,0.07,0,WeatherTracker,2013-03-20 09:15:00,
2013-03-20 02:20:00,50.1,46.7,30.11,SSW,205,5.0,6.0,88,0.05,,,0.08,0,WeatherTracker,2013-03-20 09:20:00,
2013-03-20 02:25:00,50.2,46.8,30.10,SSW,203,0.0,6.0,88,0.05,,,0.08,0,WeatherTracker,2013-03-20 09:25:00,
2013-03-20 02:30:00,50.4,47.0,30.10,SSW,192,4.0,5.0,88,0.05,,,0.08,0,WeatherTracker,2013-03-20 09:30:00,
2013-03-20 02:35:00,50.4,47.0,30.10,South,178,0.0,7.0,88,0.05,,,0.08,0,WeatherTracker,2013-03-20 09:35:00,
2013-03-20 02:40:00,50.5,47.1,30.10,South,178,2.0,7.0,88,0.05,,,0.08,0,WeatherTracker,2013-03-20 09:40:00,
2013-03-20 02:46:00,50.6,47.2,30.10,South,178,0.0,5.0,88,0.05,,,0.08,0,WeatherTracker,2013-03-20 09:46:00,
2013-03-20 02:51:00,50.6,47.2,30.10,South,185,0.0,5.0,88,0.06,,,0.09,0,WeatherTracker,2013-03-20 09:51:00,
2013-03-20 02:56:00,50.7,47.3,30.10,South,185,0.0,5.0,88,0.06,,,0.09,0,WeatherTracker,2013-03-20 09:56:00,
2013-03-20 03:01:00,50.7,47.3,30.10,South,184,0.0,5.0,88,0.06,,,0.09,0,WeatherTracker,2013-03-20 10:01:00,
2013-03-20 03:06:00,50.7,47.3,30.10,South,184,3.0,5.0,88,0.06,,,0.10,0,WeatherTracker,2013-03-20 10:06:00,
2013-03-20 03:11:00,50.8,47.4,30.10,South,184,0.0,4.0,88,0.04,,,0.10,0,WeatherTracker,2013-03-20 10:11:00,
2013-03-20 03:16:00,50.9,47.5,30.09,South,184,0.0,4.0,88,0.03,,,0.10,0,WeatherTracker,2013-03-20 10:16:00,
2013-03-20 03:21:00,51.0,47.6,30.09,South,184,0.0,1.0,88,0.03,,,0.11,0,WeatherTracker,2013-03-20 10:21:00,
2013-03-20 03:26:00,51.0,47.6,30.09,South,184,0.0,0.0,88,0.03,,,0.11,0,WeatherTracker,2013-03-20 10:26:00,
2013-03-20 03:31:00,51.0,47.6,30.09,South,184,0.0,0.0,88,0.04,,,0.12,0,WeatherTracker,2013-03-20 10:31:00,
2013-03-20 03:36:00,51.1,47.7,30.09,South,184,0.0,0.0,88,0.04,,,0.12,0,WeatherTracker,2013-03-20 10:36:00,
2013-03-20 03:41:00,51.1,47.7,30.09,South,184,0.0,0.0,88,0.05,,,0.13,0,WeatherTracker,2013-03-20 10:41:00,
2013-03-20 03:46:00,51.1,47.7,30.09,ESE,117,4.0,0.0,88,0.05,,,0.13,0,WeatherTracker,2013-03-20 10:46:00,
2013-03-20 03:51:00,51.1,47.7,30.08,ESE,108,4.0,5.0,88,0.04,,,0.13,0,WeatherTracker,2013-03-20 10:51:00,
2013-03-20 03:56:00,51.1,47.7,30.07,East,96,4.0,7.0,88,0.05,,,0.14,0,WeatherTracker,2013-03-20 10:56:00,
2013-03-20 04:01:00,51.1,47.7,30.08,ESE,109,5.0,8.0,88,0.05,,,0.14,0,WeatherTracker,2013-03-20 11:01:00,
2013-03-20 04:06:00,51.1,47.7,30.08,SE,129,6.0,8.0,88,0.04,,,0.14,0,WeatherTracker,2013-03-20 11:06:00,
2013-03-20 04:11:00,51.1,47.7,30.08,ESE,117,5.0,8.0,88,0.04,,,0.14,0,WeatherTracker,2013-03-20 11:11:00,
2013-03-20 04:16:00,51.1,47.7,30.08,ESE,113,5.0,8.0,88,0.04,,,0.14,0,WeatherTracker,2013-03-20 11:16:00,
2013-03-20 04:22:00,51.1,47.7,30.07,ESE,108,4.0,7.0,88,0.03,,,0.14,0,WeatherTracker,2013-03-20 11:22:00,
2013-03-20 04:26:00,51.2,47.8,30.07,ESE,111,2.0,11.0,88,0.03,,,0.14,0,WeatherTracker,2013-03-20 11:26:00,
2013-03-20 04:32:00,51.2,47.8,30.07,ESE,103,4.0,11.0,88,0.02,,,0.14,0,WeatherTracker,2013-03-20 11:32:00,
2013-03-20 04:37:00,51.2,47.8,30.07,East,101,4.0,8.0,88,0.02,,,0.14,0,WeatherTracker,2013-03-20 11:37:00,
2013-03-20 04:42:00,51.2,47.8,30.07,ESE,110,2.0,7.0,88,0.01,,,0.14,0,WeatherTracker,2013-03-20 11:42:00,
2013-03-20 04:47:00,51.3,47.9,30.07,ESE,112,2.0,8.0,88,0.01,,,0.14,0,WeatherTracker,2013-03-20 11:47:00,
2013-03-20 04:52:00,51.3,47.9,30.07,ESE,109,4.0,8.0,88,0.01,,,0.14,0,WeatherTracker,2013-03-20 11:52:00,
2013-03-20 04:57:00,51.3,47.9,30.07,ESE,111,2.0,7.0,88,0.00,,,0.14,0,WeatherTracker,2013-03-20 11:57:00,
2013-03-20 05:02:00,51.3,47.9,30.07,ESE,113,5.0,6.0,88,0.00,,,0.14,0,WeatherTracker,2013-03-20 12:02:00,
2013-03-20 05:07:00,51.4,48.0,30.08,ESE,113,1.0,6.0,88,0.00,,,0.14,0,WeatherTracker,2013-03-20 12:07:00,
2013-03-20 05:12:00,51.5,48.1,30.08,ESE,114,4.0,6.0,88,0.00,,,0.14,0,WeatherTracker,2013-03-20 12:12:00,
2013-03-20 05:17:00,51.5,48.1,30.08,ESE,115,2.0,6.0,88,0.00,,,0.14,0,WeatherTracker,2013-03-20 12:17:00,
2013-03-20 05:22:00,51.6,48.2,30.07,ESE,115,2.0,7.0,88,0.00,,,0.14,0,WeatherTracker,2013-03-20 12:22:00,
2013-03-20 05:27:00,51.6,48.2,30.07,ESE,117,4.0,7.0,88,0.00,,,0.14,0,WeatherTracker,2013-03-20 12:27:00,
2013-03-20 05:32:00,51.7,48.3,30.07,ESE,111,6.0,7.0,88,0.00,,,0.14,0,WeatherTracker,2013-03-20 12:32:00,
2013-03-20 05:37:00,51.7,48.3,30.06,ESE,107,5.0,11.0,88,0.01,,,0.15,0,WeatherTracker,2013-03-20 12:37:00,
2013-03-20 05:42:00,51.7,48.3,30.06,SE,124,4.0,11.0,88,0.01,,,0.15,0,WeatherTracker,2013-03-20 12:42:00,
2013-03-20 05:47:00,51.6,48.2,30.06,ESE,123,0.0,11.0,88,0.01,,,0.15,0,WeatherTracker,2013-03-20 12:47:00,
2013-03-20 05:52:00,51.6,48.2,30.07,SE,128,0.0,11.0,88,0.02,,,0.16,0,WeatherTracker,2013-03-20 12:52:00,
2013-03-20 05:57:00,51.7,48.3,30.08,SE,144,2.0,8.0,88,0.02,,,0.16,0,WeatherTracker,2013-03-20 12:57:00,
2013-03-20 06:02:00,51.8,48.4,30.07,ESE,120,6.0,8.0,88,0.03,,,0.17,0,WeatherTracker,2013-03-20 13:02:00,
2013-03-20 06:07:00,51.8,48.4,30.07,SE,136,5.0,8.0,88,0.03,,,0.17,0,WeatherTracker,2013-03-20 13:07:00,
2013-03-20 06:12:00,51.8,48.4,30.07,ESE,115,4.0,9.0,88,0.03,,,0.17,0,WeatherTracker,2013-03-20 13:12:00,
2013-03-20 06:18:00,51.9,48.5,30.07,ESE,119,4.0,9.0,88,0.03,,,0.17,0,WeatherTracker,2013-03-20 13:18:00,
2013-03-20 06:23:00,51.9,48.5,30.08,ESE,123,5.0,8.0,88,0.03,,,0.17,0,WeatherTracker,2013-03-20 13:23:00,
2013-03-20 06:28:00,51.8,48.4,30.07,ESE,115,4.0,8.0,88,0.04,,,0.18,0,WeatherTracker,2013-03-20 13:28:00,
2013-03-20 06:33:00,51.8,48.4,30.07,SE,126,6.0,8.0,88,0.04,,,0.18,0,WeatherTracker,2013-03-20 13:33:00,
2013-03-20 06:38:00,51.8,48.4,30.07,ESE,123,5.0,8.0,88,0.03,,,0.18,0,WeatherTracker,2013-03-20 13:38:00,
2013-03-20 06:43:00,51.8,48.4,30.07,ESE,122,5.0,0.0,88,0.03,,,0.18,0,WeatherTracker,2013-03-20 13:43:00,
2013-03-20 06:48:00,51.9,48.5,30.07,SE,131,8.0,8.0,88,0.04,,,0.19,0,WeatherTracker,2013-03-20 13:48:00,
2013-03-20 06:53:00,51.8,48.4,30.07,ESE,105,4.0,9.0,88,0.03,,,0.19,0,WeatherTracker,2013-03-20 13:53:00,
2013-03-20 06:58:00,51.8,48.4,30.07,ESE,105,2.0,9.0,88,0.03,,,0.19,0,WeatherTracker,2013-03-20 13:58:00,
2013-03-20 07:03:00,51.7,48.3,30.07,ESE,103,0.0,8.0,88,0.02,,,0.19,0,WeatherTracker,2013-03-20 14:03:00,
2013-03-20 07:08:00,51.7,48.3,30.08,ESE,104,2.0,6.0,88,0.02,,,0.19,0,WeatherTracker,2013-03-20 14:08:00,
2013-03-20 07:13:00,51.7,48.3,30.08,ESE,107,4.0,6.0,88,0.02,,,0.19,0,WeatherTracker,2013-03-20 14:13:00,
2013-03-20 07:18:00,51.7,48.3,30.07,ESE,107,0.0,7.0,88,0.02,,,0.19,0,WeatherTracker,2013-03-20 14:18:00,
2013-03-20 07:23:00,51.8,48.4,30.07,ESE,112,0.0,7.0,88,0.02,,,0.19,0,WeatherTracker,2013-03-20 14:23:00,
2013-03-20 07:28:00,51.8,48.4,30.07,SE,126,6.0,6.0,88,0.01,,,0.19,0,WeatherTracker,2013-03-20 14:28:00,
2013-03-20 07:33:00,51.8,48.4,30.08,ESE,109,2.0,9.0,88,0.01,,,0.19,0,WeatherTracker,2013-03-20 14:33:00,
2013-03-20 07:38:00,51.8,48.4,30.08,ESE,115,2.0,9.0,88,0.02,,,0.20,7,WeatherTracker,2013-03-20 14:38:00,
2013-03-20 07:43:00,51.8,48.4,30.08,ESE,109,5.0,9.0,88,0.02,,,0.20,7,WeatherTracker,2013-03-20 14:43:00,
2013-03-20 07:48:00,51.8,48.4,30.08,ESE,104,4.0,7.0,88,0.01,,,0.20,9,WeatherTracker,2013-03-20 14:48:00,
2013-03-20 07:53:00,51.8,48.4,30.08,ESE,105,4.0,8.0,88,0.01,,,0.20,12,WeatherTracker,2013-03-20 14:53:00,
2013-03-20 07:58:00,51.8,48.4,30.08,ESE,109,2.0,8.0,88,0.01,,,0.20,11,WeatherTracker,2013-03-20 14:58:00,
2013-03-20 08:03:00,51.8,48.4,30.08,ESE,107,5.0,8.0,88,0.01,,,0.20,14,WeatherTracker,2013-03-20 15:03:00,
2013-03-20 08:08:00,51.9,48.5,30.08,ESE,114,4.0,8.0,88,0.01,,,0.20,25,WeatherTracker,2013-03-20 15:08:00,
2013-03-20 08:14:00,51.9,48.5,30.08,ESE,105,6.0,8.0,88,0.01,,,0.20,28,WeatherTracker,2013-03-20 15:14:00,
2013-03-20 08:19:00,52.0,48.6,30.07,SE,125,4.0,9.0,88,0.01,,,0.20,39,WeatherTracker,2013-03-20 15:19:00,
2013-03-20 08:24:00,52.2,48.8,30.08,ESE,112,2.0,11.0,88,0.01,,,0.20,51,WeatherTracker,2013-03-20 15:24:00,
2013-03-20 08:29:00,52.3,48.9,30.08,SE,126,4.0,11.0,88,0.01,,,0.20,42,WeatherTracker,2013-03-20 15:29:00,
2013-03-20 08:34:00,52.4,49.0,30.08,SE,125,4.0,7.0,88,0.01,,,0.20,37,WeatherTracker,2013-03-20 15:34:00,
2013-03-20 08:39:00,52.4,49.0,30.08,ESE,115,4.0,8.0,88,0.00,,,0.20,44,WeatherTracker,2013-03-20 15:39:00,
2013-03-20 08:44:00,52.5,48.7,30.07,ESE,116,5.0,8.0,87,0.00,,,0.20,51,WeatherTracker,2013-03-20 15:44:00,
2013-03-20 08:49:00,52.6,48.8,30.08,ESE,117,0.0,8.0,87,0.00,,,0.20,40,WeatherTracker,2013-03-20 15:49:00,
2013-03-20 08:54:00,52.7,48.9,30.08,ESE,118,2.0,8.0,87,0.00,,,0.20,63,WeatherTracker,2013-03-20 15:54:00,
2013-03-20 08:59:00,52.9,49.1,30.08,ESE,111,4.0,6.0,87,0.00,,,0.20,102,WeatherTracker,2013-03-20 15:59:00,
2013-03-20 09:04:00,53.0,49.5,30.08,ESE,108,4.0,7.0,88,0.00,,,0.20,86,WeatherTracker,2013-03-20 16:04:00,
2013-03-20 09:09:00,53.2,49.4,30.08,ESE,117,5.0,8.0,87,0.00,,,0.20,107,WeatherTracker,2013-03-20 16:09:00,
2013-03-20 09:14:00,53.5,49.7,30.08,SE,127,5.0,9.0,87,0.00,,,0.20,125,WeatherTracker,2013-03-20 16:14:00,
2013-03-20 09:19:00,53.6,49.8,30.07,SE,130,2.0,9.0,87,0.00,,,0.20,104,WeatherTracker,2013-03-20 16:19:00,
2013-03-20 09:25:00,53.8,50.0,30.08,SE,141,9.0,11.0,87,0.00,,,0.20,84,WeatherTracker,2013-03-20 16:25:00,
2013-03-20 09:30:00,53.9,50.1,30.07,ESE,106,4.0,11.0,87,0.00,,,0.20,141,WeatherTracker,2013-03-20 16:30:00,
2013-03-20 09:35:00,54.0,50.2,30.08,SE,132,9.0,12.0,87,0.00,,,0.20,165,WeatherTracker,2013-03-20 16:35:00,
2013-03-20 09:40:00,54.1,50.3,30.08,SE,140,4.0,12.0,87,0.00,,,0.20,162,WeatherTracker,2013-03-20 16:40:00,
2013-03-20 09:45:00,54.3,50.5,30.08,SE,127,2.0,11.0,87,0.00,,,0.20,148,WeatherTracker,2013-03-20 16:45:00,
2013-03-20 09:50:00,54.5,50.7,30.08,SSE,167,7.0,9.0,87,0.00,,,0.20,214,WeatherTracker,2013-03-20 16:50:00,
2013-03-20 09:55:00,54.9,51.1,30.07,ESE,119,9.0,12.0,87,0.00,,,0.20,318,WeatherTracker,2013-03-20 16:55:00,
2013-03-20 10:00:00,55.3,51.5,30.07,SSE,149,5.0,13.0,87,0.00,,,0.20,292,WeatherTracker,2013-03-20 17:00:00,
2013-03-20 10:05:00,55.8,52.0,30.07,SSE,161,10.0,13.0,87,0.00,,,0.20,357,WeatherTracker,2013-03-20 17:05:00,
2013-03-20 10:10:00,56.5,52.7,30.07,SSE,153,10.0,13.0,87,0.00,,,0.20,388,WeatherTracker,2013-03-20 17:10:00,
2013-03-20 10:15:00,57.2,53.7,30.07,ESE,117,8.0,13.0,88,0.00,,,0.20,241,WeatherTracker,2013-03-20 17:15:00,
2013-03-20 10:20:00,57.5,54.0,30.07,SE,131,13.0,13.0,88,0.00,,,0.20,248,WeatherTracker,2013-03-20 17:20:00,
2013-03-20 10:25:00,57.8,54.3,30.08,SE,126,5.0,17.0,88,0.00,,,0.20,265,WeatherTracker,2013-03-20 17:25:00,
2013-03-20 10:30:00,58.0,54.5,30.08,SE,131,8.0,17.0,88,0.00,,,0.20,223,WeatherTracker,2013-03-20 17:30:00,
2013-03-20 10:35:00,58.1,54.6,30.08,SE,143,7.0,16.0,88,0.00,,,0.20,213,WeatherTracker,2013-03-20 17:35:00,
2013-03-20 10:40:00,58.1,54.6,30.08,ESE,115,5.0,16.0,88,0.00,,,0.20,288,WeatherTracker,2013-03-20 17:40:00,
2013-03-20 10:45:00,58.3,54.8,30.08,SE,132,7.0,14.0,88,0.00,,,0.20,274,WeatherTracker,2013-03-20 17:45:00,
2013-03-20 10:50:00,58.5,55.0,30.08,SE,146,7.0,15.0,88,0.00,,,0.20,236,WeatherTracker,2013-03-20 17:50:00,
2013-03-20 10:55:00,58.7,54.5,30.08,SE,134,8.0,15.0,86,0.00,,,0.20,153,WeatherTracker,2013-03-20 17:55:00,
2013-03-20 11:00:00,58.8,54.6,30.08,South,169,5.0,14.0,86,0.00,,,0.20,90,WeatherTracker,2013-03-20 18:00:00,
2013-03-20 11:05:00,58.7,54.5,30.08,SSE,159,5.0,11.0,86,0.00,,,0.20,84,WeatherTracker,2013-03-20 18:05:00,
2013-03-20 11:11:00,58.6,54.4,30.09,SSE,165,4.0,12.0,86,0.00,,,0.20,109,WeatherTracker,2013-03-20 18:11:00,
2013-03-20 11:16:00,58.6,54.4,30.09,SSE,159,6.0,12.0,86,0.00,,,0.20,72,WeatherTracker,2013-03-20 18:16:00,
2013-03-20 11:21:00,58.5,54.3,30.09,SSE,157,0.0,9.0,86,0.00,,,0.20,86,WeatherTracker,2013-03-20 18:21:00,
2013-03-20 11:26:00,58.4,54.2,30.09,South,174,0.0,9.0,86,0.00,,,0.20,62,WeatherTracker,2013-03-20 18:26:00,
2013-03-20 11:31:00,58.4,54.5,30.09,South,175,4.0,7.0,87,0.00,,,0.20,63,WeatherTracker,2013-03-20 18:31:00,
2013-03-20 11:36:00,58.3,54.4,30.09,SSE,166,2.0,7.0,87,0.00,,,0.20,72,WeatherTracker,2013-03-20 18:36:00,
2013-03-20 11:41:00,58.3,54.1,30.09,SSE,159,0.0,7.0,86,0.00,,,0.20,90,WeatherTracker,2013-03-20 18:41:00,
2013-03-20 11:46:00,58.3,54.4,30.09,SSE,160,5.0,7.0,87,0.00,,,0.20,86,WeatherTracker,2013-03-20 18:46:00,
2013-03-20 11:52:00,58.3,54.1,30.09,SSE,160,4.0,7.0,86,0.00,,,0.20,88,WeatherTracker,2013-03-20 18:52:00,
2013-03-20 11:57:00,58.3,54.1,30.09,SSE,164,0.0,7.0,86,0.00,,,0.20,125,WeatherTracker,2013-03-20 18:57:00,
2013-03-20 12:02:00,58.5,54.3,30.09,SSE,153,4.0,7.0,86,0.00,,,0.20,204,WeatherTracker,2013-03-20 19:02:00,
2013-03-20 12:07:00,58.7,54.5,30.09,SE,130,7.0,7.0,86,0.00,,,0.20,169,WeatherTracker,2013-03-20 19:07:00,
2013-03-20 12:12:00,59.1,54.9,30.09,SSE,160,7.0,7.0,86,0.00,,,0.20,153,WeatherTracker,2013-03-20 19:12:00,
2013-03-20 12:17:00,59.1,54.6,30.09,South,171,7.0,11.0,85,0.00,,,0.20,134,WeatherTracker,2013-03-20 19:17:00,
2013-03-20 12:22:00,59.1,54.6,30.09,South,187,10.0,11.0,85,0.00,,,0.20,118,WeatherTracker,2013-03-20 19:22:00,
2013-03-20 12:27:00,59.1,53.9,30.09,SSE,163,6.0,11.0,83,0.00,,,0.20,190,WeatherTracker,2013-03-20 19:27:00,
2013-03-20 12:32:00,59.3,53.1,30.09,South,182,5.0,12.0,80,0.00,,,0.20,244,WeatherTracker,2013-03-20 19:32:00,
2013-03-20 12:37:00,59.6,53.4,30.09,SSE,155,7.0,12.0,80,0.00,,,0.20,332,WeatherTracker,2013-03-20 19:37:00,
2013-03-20 12:42:00,59.9,52.3,30.09,South,175,8.0,12.0,76,0.00,,,0.20,255,WeatherTracker,2013-03-20 19:42:00,
2013-03-20 12:47:00,60.1,52.1,30.09,South,178,5.0,14.0,75,0.00,,,0.20,383,WeatherTracker,2013-03-20 19:47:00,
2013-03-20 12:52:00,60.5,52.9,30.09,South,172,5.0,14.0,76,0.00,,,0.20,309,WeatherTracker,2013-03-20 19:52:00,
2013-03-20 12:57:00,60.7,53.4,30.09,SSE,159,0.0,12.0,77,0.00,,,0.20,250,WeatherTracker,2013-03-20 19:57:00,
2013-03-20 13:02:00,61.0,53.4,30.09,SSE,160,8.0,12.0,76,0.00,,,0.20,211,WeatherTracker,2013-03-20 20:02:00,
2013-03-20 13:07:00,60.9,53.3,30.09,SE,146,8.0,13.0,76,0.00,,,0.20,169,WeatherTracker,2013-03-20 20:07:00,
2013-03-20 13:12:00,60.8,53.5,30.09,SSE,153,2.0,14.0,77,0.00,,,0.20,109,WeatherTracker,2013-03-20 20:12:00,
2013-03-20 13:17:00,60.7,53.4,30.10,South,171,9.0,14.0,77,0.00,,,0.20,116,WeatherTracker,2013-03-20 20:17:00,
2013-03-20 13:22:00,60.4,52.8,30.10,South,171,4.0,15.0,76,0.00,,,0.20,111,WeatherTracker,2013-03-20 20:22:00,
2013-03-20 13:27:00,60.2,53.3,30.10,SSE,148,9.0,15.0,78,0.00,,,0.20,158,WeatherTracker,2013-03-20 20:27:00,
2013-03-20 13:32:00,60.2,53.3,30.09,SSE,154,7.0,14.0,78,0.00,,,0.20,221,WeatherTracker,2013-03-20 20:32:00,
2013-03-20 13:38:00,60.2,54.0,30.09,South,169,6.0,14.0,80,0.00,,,0.20,225,WeatherTracker,2013-03-20 20:38:00,
2013-03-20 13:43:00,60.1,54.6,30.09,South,182,7.0,14.0,82,0.01,,,0.21,283,WeatherTracker,2013-03-20 20:43:00,
2013-03-20 13:48:00,59.8,54.6,30.09,SSW,196,4.0,14.0,83,0.01,,,0.21,272,WeatherTracker,2013-03-20 20:48:00,
2013-03-20 13:53:00,59.8,55.0,30.09,South,179,4.0,13.0,84,0.01,,,0.21,464,WeatherTracker,2013-03-20 20:53:00,
2013-03-20 13:58:00,60.3,55.8,30.09,SSE,165,7.0,11.0,85,0.01,,,0.21,580,WeatherTracker,2013-03-20 20:58:00,
2013-03-20 14:03:00,60.8,55.6,30.09,South,171,6.0,11.0,83,0.01,,,0.21,499,WeatherTracker,2013-03-20 21:03:00,
2013-03-20 14:08:00,61.4,55.9,30.09,SE,146,11.0,13.0,82,0.01,,,0.21,323,WeatherTracker,2013-03-20 21:08:00,
2013-03-20 14:13:00,61.4,55.2,30.09,SE,140,6.0,15.0,80,0.01,,,0.21,403,WeatherTracker,2013-03-20 21:13:00,
2013-03-20 14:18:00,61.3,55.1,30.09,SSW,201,9.0,15.0,80,0.01,,,0.21,390,WeatherTracker,2013-03-20 21:18:00,
2013-03-20 14:23:00,61.6,55.7,30.09,SSW,195,9.0,15.0,81,0.01,,,0.21,404,WeatherTracker,2013-03-20 21:23:00,
2013-03-20 14:28:00,61.7,55.1,30.09,SSW,196,8.0,15.0,79,0.01,,,0.21,446,WeatherTracker,2013-03-20 21:28:00,
2013-03-20 14:33:00,61.7,55.5,30.09,SSE,155,9.0,14.0,80,0.01,,,0.21,436,WeatherTracker,2013-03-20 21:33:00,
2013-03-20 14:38:00,62.0,55.8,30.09,South,178,8.0,19.0,80,0.01,,,0.21,671,WeatherTracker,2013-03-20 21:38:00,
2013-03-20 14:43:00,62.2,55.6,30.08,South,181,7.0,19.0,79,0.00,,,0.21,545,WeatherTracker,2013-03-20 21:43:00,
2013-03-20 14:48:00,62.5,56.2,30.08,South,182,9.0,18.0,80,0.00,,,0.21,504,WeatherTracker,2013-03-20 21:48:00,
2013-03-20 14:53:00,62.7,55.4,30.07,South,183,7.0,18.0,77,0.00,,,0.21,905,WeatherTracker,2013-03-20 21:53:00,
2013-03-20 14:58:00,63.0,55.3,30.07,SSE,168,8.0,21.0,76,0.00,,,0.21,796,WeatherTracker,2013-03-20 21:58:00,
2013-03-20 15:03:00,63.3,56.0,30.07,South,176,13.0,21.0,77,0.00,,,0.21,784,WeatherTracker,2013-03-20 22:03:00,
2013-03-20 15:08:00,63.8,56.1,30.07,South,190,4.0,20.0,76,0.00,,,0.21,796,WeatherTracker,2013-03-20 22:08:00,
2013-03-20 15:13:00,64.3,56.6,30.07,South,169,12.0,18.0,76,0.00,,,0.21,763,WeatherTracker,2013-03-20 22:13:00,
2013-03-20 15:18:00,64.5,56.8,30.07,South,179,4.0,18.0,76,0.00,,,0.21,773,WeatherTracker,2013-03-20 22:18:00,
2013-03-20 15:23:00,64.6,56.5,30.08,SSE,163,7.0,18.0,75,0.00,,,0.21,763,WeatherTracker,2013-03-20 22:23:00,
2013-03-20 15:28:00,65.0,56.1,30.07,SSE,152,9.0,19.0,73,0.00,,,0.21,791,WeatherTracker,2013-03-20 22:28:00,
2013-03-20 15:33:00,65.5,56.6,30.08,SSW,202,3.0,19.0,73,0.00,,,0.21,1016,WeatherTracker,2013-03-20 22:33:00,
2013-03-20 15:38:00,65.7,56.4,30.07,South,177,4.0,13.0,72,0.00,,,0.21,346,WeatherTracker,2013-03-20 22:38:00,
2013-03-20 15:43:00,65.5,56.6,30.07,SSE,167,6.0,14.0,73,0.00,,,0.21,399,WeatherTracker,2013-03-20 22:43:00,
2013-03-20 15:49:00,65.3,56.0,30.07,SSW,194,4.0,14.0,72,0.00,,,0.21,388,WeatherTracker,2013-03-20 22:49:00,
2013-03-20 15:54:00,65.3,56.4,30.07,South,172,10.0,15.0,73,0.00,,,0.21,281,WeatherTracker,2013-03-20 22:54:00,
2013-03-20 15:59:00,65.4,56.5,30.07,SSW,209,4.0,15.0,73,0.00,,,0.21,601,WeatherTracker,2013-03-20 22:59:00,
2013-03-20 16:04:00,65.7,56.0,30.07,SSW,199,3.0,14.0,71,0.00,,,0.21,601,WeatherTracker,2013-03-20 23:04:00,
2013-03-20 16:09:00,66.2,55.7,30.07,SSE,168,7.0,14.0,69,0.00,,,0.21,601,WeatherTracker,2013-03-20 23:09:00,
2013-03-20 16:14:00,66.6,56.5,30.06,SSE,148,8.0,11.0,70,0.00,,,0.21,601,WeatherTracker,2013-03-20 23:14:00,
2013-03-20 16:19:00,66.9,56.8,30.06,South,189,6.0,12.0,70,0.00,,,0.21,668,WeatherTracker,2013-03-20 23:19:00,
2013-03-20 16:24:00,67.2,56.7,30.06,SSE,156,2.0,12.0,69,0.00,,,0.21,599,WeatherTracker,2013-03-20 23:24:00,
2013-03-20 16:29:00,67.7,56.7,30.06,SE,131,4.0,10.0,68,0.00,,,0.21,155,WeatherTracker,2013-03-20 23:29:00,
2013-03-20 16:34:00,68.2,56.4,30.06,ESE,109,6.0,11.0,66,0.00,,,0.21,580,WeatherTracker,2013-03-20 23:34:00,
2013-03-20 16:39:00,68.4,57.0,30.06,SE,133,7.0,13.0,67,0.00,,,0.21,548,WeatherTracker,2013-03-20 23:39:00,
2013-03-20 16:44:00,68.3,56.5,30.05,South,169,1.0,13.0,66,0.00,,,0.21,552,WeatherTracker,2013-03-20 23:44:00,
2013-03-20 16:49:00,68.2,56.8,30.05,SSE,164,10.0,12.0,67,0.00,,,0.21,517,WeatherTracker,2013-03-20 23:49:00,
2013-03-20 16:54:00,68.4,57.0,30.05,SSE,154,4.0,11.0,67,0.00,,,0.21,490,WeatherTracker,2013-03-20 23:54:00,
2013-03-20 16:59:00,68.6,56.4,30.05,South,178,7.0,13.0,65,0.00,,,0.21,475,WeatherTracker,2013-03-20 23:59:00,
2013-03-20 17:04:00,68.1,56.3,30.05,SSE,156,0.0,13.0,66,0.00,,,0.21,469,WeatherTracker,2013-03-21 00:04:00,
2013-03-20 17:09:00,68.1,56.7,30.05,ESE,121,6.0,12.0,67,0.00,,,0.21,464,WeatherTracker,2013-03-21 00:09:00,
2013-03-20 17:15:00,68.2,56.8,30.05,ESE,117,13.0,13.0,67,0.00,,,0.21,151,WeatherTracker,2013-03-21 00:15:00,
2013-03-20 17:20:00,67.7,56.3,30.05,SE,133,8.0,13.0,67,0.00,,,0.21,163,WeatherTracker,2013-03-21 00:20:00,
2013-03-20 17:25:00,66.6,55.7,30.06,SSE,158,8.0,13.0,68,0.00,,,0.21,97,WeatherTracker,2013-03-21 00:25:00,
2013-03-20 17:30:00,65.2,55.6,30.06,South,176,6.0,13.0,71,0.00,,,0.21,113,WeatherTracker,2013-03-21 00:30:00,
2013-03-20 17:35:00,64.5,55.6,30.06,SSE,162,0.0,13.0,73,0.00,,,0.21,158,WeatherTracker,2013-03-21 00:35:00,
2013-03-20 17:40:00,64.2,55.7,30.06,SSE,163,4.0,11.0,74,0.00,,,0.21,197,WeatherTracker,2013-03-21 00:40:00,
2013-03-20 17:45:00,64.0,55.2,30.06,SSE,157,7.0,12.0,73,0.00,,,0.21,276,WeatherTracker,2013-03-21 00:45:00,
2013-03-20 17:50:00,64.1,54.9,30.06,South,172,11.0,12.0,72,0.00,,,0.21,102,WeatherTracker,2013-03-21 00:50:00,
2013-03-20 17:55:00,63.6,54.8,30.06,South,176,7.0,14.0,73,0.00,,,0.21,109,WeatherTracker,2013-03-21 00:55:00,
2013-03-20 18:00:00,63.3,54.9,30.06,SSE,159,4.0,14.0,74,0.00,,,0.21,90,WeatherTracker,2013-03-21 01:00:00,
2013-03-20 18:05:00,63.1,55.0,30.06,South,185,7.0,12.0,75,0.00,,,0.21,58,WeatherTracker,2013-03-21 01:05:00,
2013-03-20 18:10:00,62.7,54.7,30.06,SSE,163,4.0,11.0,75,0.00,,,0.21,42,WeatherTracker,2013-03-21 01:10:00,
2013-03-20 18:15:00,62.4,54.7,30.06,South,184,2.0,13.0,76,0.00,,,0.21,44,WeatherTracker,2013-03-21 01:15:00,
2013-03-20 18:20:00,62.2,54.5,30.06,SSW,192,4.0,13.0,76,0.00,,,0.21,40,WeatherTracker,2013-03-21 01:20:00,
2013-03-20 18:25:00,61.9,54.2,30.06,South,182,4.0,11.0,76,0.00,,,0.21,56,WeatherTracker,2013-03-21 01:25:00,
2013-03-20 18:30:00,61.7,54.4,30.06,South,190,0.0,11.0,77,0.00,,,0.21,54,WeatherTracker,2013-03-21 01:30:00,
2013-03-20 18:35:00,61.5,54.6,30.06,SSE,155,6.0,9.0,78,0.00,,,0.21,58,WeatherTracker,2013-03-21 01:35:00,
2013-03-20 18:41:00,61.4,54.5,30.06,SSE,157,0.0,11.0,78,0.00,,,0.21,42,WeatherTracker,2013-03-21 01:41:00,
2013-03-20 18:46:00,61.3,54.7,30.06,South,171,0.0,11.0,79,0.00,,,0.21,33,WeatherTracker,2013-03-21 01:46:00,
2013-03-20 18:51:00,61.2,54.6,30.06,South,182,4.0,10.0,79,0.00,,,0.21,23,WeatherTracker,2013-03-21 01:51:00,
2013-03-20 18:56:00,61.1,54.5,30.06,SSW,196,2.0,8.0,79,0.00,,,0.21,21,WeatherTracker,2013-03-21 01:56:00,
2013-03-20 19:01:00,61.0,54.4,30.06,SSW,192,0.0,8.0,79,0.00,,,0.21,14,WeatherTracker,2013-03-21 02:01:00,
2013-03-20 19:06:00,60.9,54.0,30.06,SSW,211,2.0,9.0,78,0.00,,,0.21,11,WeatherTracker,2013-03-21 02:06:00,
2013-03-20 19:11:00,60.7,54.1,30.06,SSW,195,6.0,9.0,79,0.00,,,0.21,9,WeatherTracker,2013-03-21 02:11:00,
2013-03-20 19:16:00,60.5,54.0,30.06,South,186,0.0,9.0,79,0.00,,,0.21,7,WeatherTracker,2013-03-21 02:16:00,
2013-03-20 19:21:00,60.3,54.1,30.06,South,178,0.0,7.0,80,0.00,,,0.21,0,WeatherTracker,2013-03-21 02:21:00,
2013-03-20 19:26:00,60.1,54.2,30.06,SE,146,0.0,7.0,81,0.00,,,0.21,0,WeatherTracker,2013-03-21 02:26:00,
2013-03-20 19:31:00,60.0,54.1,30.06,ESE,102,6.0,0.0,81,0.00,,,0.21,0,WeatherTracker,2013-03-21 02:31:00,
2013-03-20 19:36:00,59.8,54.0,30.06,SE,130,2.0,9.0,81,0.00,,,0.21,0,WeatherTracker,2013-03-21 02:36:00,
2013-03-20 19:41:00,59.6,53.8,30.07,SE,130,0.0,9.0,81,0.00,,,0.21,0,WeatherTracker,2013-03-21 02:41:00,
2013-03-20 19:46:00,59.4,53.9,30.06,SE,124,0.0,8.0,82,0.00,,,0.21,0,WeatherTracker,2013-03-21 02:46:00,
2013-03-20 19:51:00,59.1,53.6,30.06,ESE,115,0.0,8.0,82,0.00,,,0.21,0,WeatherTracker,2013-03-21 02:51:00,
2013-03-20 19:56:00,59.1,53.9,30.06,ESE,113,2.0,8.0,83,0.00,,,0.21,0,WeatherTracker,2013-03-21 02:56:00,
2013-03-20 20:01:00,58.8,53.6,30.07,SE,136,0.0,8.0,83,0.00,,,0.21,0,WeatherTracker,2013-03-21 03:01:00,
2013-03-20 20:06:00,58.6,53.5,30.07,SE,136,0.0,6.0,83,0.00,,,0.21,0,WeatherTracker,2013-03-21 03:06:00,
2013-03-20 20:12:00,58.3,53.5,30.07,SE,140,0.0,5.0,84,0.00,,,0.21,0,WeatherTracker,2013-03-21 03:12:00,
2013-03-20 20:17:00,58.0,52.9,30.07,SE,140,0.0,5.0,83,0.00,,,0.21,0,WeatherTracker,2013-03-21 03:17:00,
2013-03-20 20:22:00,57.8,53.0,30.07,SE,140,0.0,0.0,84,0.00,,,0.21,0,WeatherTracker,2013-03-21 03:22:00,
2013-03-20 20:27:00,57.6,52.8,30.07,SE,140,0.0,0.0,84,0.00,,,0.21,0,WeatherTracker,2013-03-21 03:27:00,
2013-03-20 20:32:00,57.4,52.6,30.07,SE,140,0.0,0.0,84,0.00,,,0.21,0,WeatherTracker,2013-03-21 03:32:00,
2013-03-20 20:37:00,57.2,52.7,30.08,SE,140,0.0,0.0,85,0.00,,,0.21,0,WeatherTracker,2013-03-21 03:37:00,
2013-03-20 20:42:00,57.0,52.5,30.08,SE,140,0.0,0.0,85,0.00,,,0.21,0,WeatherTracker,2013-03-21 03:42:00,
2013-03-20 20:47:00,56.8,52.3,30.08,SE,140,0.0,0.0,85,0.00,,,0.21,0,WeatherTracker,2013-03-21 03:47:00,
2013-03-20 20:52:00,56.6,52.1,30.08,SE,140,0.0,0.0,85,0.00,,,0.21,0,WeatherTracker,2013-03-21 03:52:00,
2013-03-20 20:57:00,56.4,51.9,30.08,SE,140,0.0,0.0,85,0.00,,,0.21,0,WeatherTracker,2013-03-21 03:57:00,
2013-03-20 21:00:00,56.3,51.8,30.08,SSE,158,5.0,5.0,85,0.00,,,0.21,0,WeatherTracker,2013-03-21 04:00:00,
2013-03-20 21:01:00,56.3,52.2,30.08,SSE,157,1.0,5.0,86,0.00,,,0.21,0,WeatherTracker,2013-03-21 04:01:00,
2013-03-20 21:06:00,56.1,52.0,30.08,SSE,153,0.0,6.0,86,0.00,,,0.21,0,WeatherTracker,2013-03-21 04:06:00,
2013-03-20 21:11:00,55.9,51.8,30.08,SSE,153,0.0,6.0,86,0.00,,,0.21,0,WeatherTracker,2013-03-21 04:11:00,
2013-03-20 21:16:00,55.8,51.7,30.08,SSE,153,0.0,0.0,86,0.00,,,0.21,0,WeatherTracker,2013-03-21 04:16:00,
2013-03-20 21:21:00,55.7,51.6,30.08,SSE,153,0.0,0.0,86,0.00,,,0.21,0,WeatherTracker,2013-03-21 04:21:00,
2013-03-20 21:26:00,55.6,51.5,30.08,SSE,163,4.0,4.0,86,0.00,,,0.21,0,WeatherTracker,2013-03-21 04:26:00,
2013-03-20 21:31:00,55.4,51.3,30.08,South,175,6.0,6.0,86,0.00,,,0.21,0,WeatherTracker,2013-03-21 04:31:00,
2013-03-20 21:36:00,55.3,51.2,30.08,South,188,4.0,7.0,86,0.00,,,0.21,0,WeatherTracker,2013-03-21 04:36:00,
2013-03-20 21:41:00,55.1,51.0,30.08,SSW,196,2.0,10.0,86,0.00,,,0.21,0,WeatherTracker,2013-03-21 04:41:00,
2013-03-20 21:46:00,55.0,50.9,30.08,SSW,192,5.0,10.0,86,0.00,,,0.21,0,WeatherTracker,2013-03-21 04:46:00,
2013-03-20 21:51:00,54.8,50.7,30.08,SSW,200,3.0,9.0,86,0.00,,,0.21,0,WeatherTracker,2013-03-21 04:51:00,
2013-03-20 21:56:00,54.6,50.5,30.09,SSW,211,4.0,9.0,86,0.00,,,0.21,0,WeatherTracker,2013-03-21 04:56:00,
2013-03-20 22:01:00,54.5,50.4,30.09,SSW,208,2.0,9.0,86,0.00,,,0.21,0,WeatherTracker,2013-03-21 05:01:00,
2013-03-20 22:06:00,54.5,50.4,30.09,SSW,208,0.0,7.0,86,0.00,,,0.21,0,WeatherTracker,2013-03-21 05:06:00,
2013-03-20 22:11:00,54.4,50.3,30.09,ESE,116,0.0,6.0,86,0.00,,,0.21,0,WeatherTracker,2013-03-21 05:11:00,
2013-03-20 22:16:00,54.2,50.1,30.09,ESE,116,0.0,0.0,86,0.00,,,0.21,0,WeatherTracker,2013-03-21 05:16:00,
2013-03-20 22:22:00,54.1,50.0,30.09,ESE,115,0.0,0.0,86,0.00,,,0.21,0,WeatherTracker,2013-03-21 05:22:00,
2013-03-20 22:27:00,53.8,49.7,30.09,ESE,114,0.0,0.0,86,0.00,,,0.21,0,WeatherTracker,2013-03-21 05:27:00,
2013-03-20 22:32:00,53.7,49.6,30.09,ESE,112,1.0,6.0,86,0.00,,,0.21,0,WeatherTracker,2013-03-21 05:32:00,
2013-03-20 22:37:00,53.5,49.7,30.10,SE,126,1.0,6.0,87,0.00,,,0.21,0,WeatherTracker,2013-03-21 05:37:00,
2013-03-20 22:42:00,53.4,49.6,30.09,SE,128,0.0,7.0,87,0.00,,,0.21,0,WeatherTracker,2013-03-21 05:42:00,
2013-03-20 22:47:00,53.3,49.5,30.09,SSE,167,0.0,7.0,87,0.00,,,0.21,0,WeatherTracker,2013-03-21 05:47:00,
2013-03-20 22:52:00,53.1,49.3,30.10,SSW,196,4.0,4.0,87,0.00,,,0.21,0,WeatherTracker,2013-03-21 05:52:00,
2013-03-20 22:57:00,53.0,49.2,30.10,SSW,203,3.0,5.0,87,0.00,,,0.21,0,WeatherTracker,2013-03-21 05:57:00,
2013-03-20 23:02:00,53.0,49.2,30.09,SSW,207,3.0,6.0,87,0.00,,,0.21,0,WeatherTracker,2013-03-21 06:02:00,
2013-03-20 23:07:00,52.9,49.1,30.09,SSW,211,5.0,7.0,87,0.00,,,0.21,0,WeatherTracker,2013-03-21 06:07:00,
2013-03-20 23:12:00,52.8,49.0,30.09,SSW,207,4.0,7.0,87,0.00,,,0.21,0,WeatherTracker,2013-03-21 06:12:00,
2013-03-20 23:17:00,52.7,48.9,30.09,SW,214,3.0,9.0,87,0.00,,,0.21,0,WeatherTracker,2013-03-21 06:17:00,
2013-03-20 23:22:00,52.5,48.4,30.09,SW,227,6.0,9.0,86,0.00,,,0.21,0,WeatherTracker,2013-03-21 06:22:00,
2013-03-20 23:27:00,52.5,48.4,30.08,SSW,209,7.0,9.0,86,0.00,,,0.21,0,WeatherTracker,2013-03-21 06:27:00,
2013-03-20 23:32:00,52.6,48.5,30.08,SSW,211,5.0,12.0,86,0.00,,,0.21,0,WeatherTracker,2013-03-21 06:32:00,
2013-03-20 23:38:00,52.8,48.7,30.09,SW,218,3.0,12.0,86,0.00,,,0.21,0,WeatherTracker,2013-03-21 06:38:00,
2013-03-20 23:43:00,52.9,48.8,30.08,SSW,208,6.0,10.0,86,0.00,,,0.21,0,WeatherTracker,2013-03-21 06:43:00,
2013-03-20 23:48:00,53.1,48.7,30.08,SW,215,5.0,10.0,85,0.00,,,0.21,0,WeatherTracker,2013-03-21 06:48:00,
2013-03-20 23:53:00,53.3,48.6,30.08,SSW,200,5.0,11.0,84,0.00,,,0.21,0,WeatherTracker,2013-03-21 06:53:00,
2013-03-20 23:58:00,53.4,48.7,30.08,SSW,207,2.0,11.0,84,0.00,,,0.21,0,WeatherTracker,2013-03-21 06:58:00,